Overview Statistics Trail Chart Weather Telemetry Raw packets
 

This is the latest recevied weather packets stored in our database for station/object HA2SKA-1. If no packets are shown the sender has not sent any weather packets the latest 10 day(s).

<< 27 28 29 30 31 32 33 >>
Time Temp. Humidity Pressure Rain* Wind** Luminosity Snow
1788015002 31.11° C 37% 1017.9 hPa - - - -
1788013211 30° C 38% 1018 hPa - - - -
1788012311 31.11° C 39% 1018 hPa - - - -
1788011411 30° C 41% 1018.1 hPa - - - -
1788010511 30° C 40% 1018.3 hPa - - - -
1788009620 29.44° C 40% 1018.6 hPa - - - -
1788008711 30.56° C 39% 1018.8 hPa - - - -
1788007810 29.44° C 42% 1018.9 hPa - - - -
1788006910 30° C 42% 1019.1 hPa - - - -
1788006010 28.89° C 44% 1019.2 hPa - - - -
1788005110 28.89° C 44% 1019.4 hPa - - - -
1788004210 27.78° C 47% 1019.4 hPa - - - -
1788003310 28.33° C 50% 1019.6 hPa - - - -
1788002410 28.89° C 54% 1020 hPa - - - -
1788001510 26.67° C 59% 1020 hPa - - - -
1788000610 25.56° C 66% 1020 hPa - - - -
1787999710 26.67° C 62% 1020 hPa - - - -
1787998809 26.67° C 62% 1019.8 hPa - - - -
1787997909 26.67° C 64% 1019.7 hPa - - - -
1787997009 26.67° C 69% 1019.8 hPa - - - -
1787996109 25.56° C 78% 1019.8 hPa - - - -
1787995209 26.11° C 74% 1019.9 hPa - - - -
1787994309 25.56° C 83% 1019.9 hPa - - - -
1787993409 25° C 79% 1019.8 hPa - - - -
1787992509 24.44° C 81% 1019.5 hPa - - - -

* Rain since midnight (hover to see other rain measurements)
** Current wind speed in m/s (hover to see current wind gust speed)